Weather History for Yuma MCAS, AZ

Change the Weather History Date:

Monday, February 18, 2013

  Actual Average Record
Temperature  
Mean Temperature 61 °F 62 °F  
Max Temperature 75 °F 74 °F 90 °F (1981)
Min Temperature 47 °F 51 °F 30 °F (1910)
Degree Days  
Heating Degree Days 4 4  
Month to date heating degree days 86 82  
Since 1 July heating degree days 607 590  
Cooling Degree Days 0 1  
Month to date cooling degree days 8 17  
Year to date cooling degree days 11 23  
Growing Degree Days 10 (Base 50)    
Moisture  
Dew Point 28 °F    
Average Humidity 32    
Maximum Humidity 46    
Minimum Humidity 17    
Precipitation  
Precipitation 0.00 in 0.02 in 1.00 in (1889)
Month to date precipitation T 0.25  
Year to date precipitation 1.02 0.62  
Sea Level Pressure  
Sea Level Pressure 29.92 in    
Wind  
Wind Speed 3 mph (NE)    
Max Wind Speed 10 mph    
Max Gust Speed 14 mph    
Visibility 10 miles    
Events      
T = Trace of Precipitation, MM = Missing Value Source: NWS Daily Summary

Daily Weather History Graph

Daily Weather History Graph

Search for Another Location

Airport:

Trip Planner

Search our weather history database for the weather conditions in past years. The results will help you decide how hot, cold, wet, or windy it might be!

Date:

Astronomy

Feb. 18, 2013 Rise Set
Actual Time 7:18 AM MST 6:26 PM MST
Civil Twilight 6:53 AM MST 6:52 PM MST
Nautical Twilight 6:24 AM MST 7:20 PM MST
Astronomical Twilight 5:55 AM MST 7:49 PM MST
Moon 12:25 PM MST (2/18) 1:52 AM MST (2/18)
Length of Visible Light 11h 59m
Length of Day
11h 08m
First Quarter, 59% of the Moon is Illuminated
Feb 18
First Quarter
Feb 25
Full
Mar 4
Last Quarter
Mar 11
New
Mar 19
First Quarter

Hourly Weather History & Observations

Time (MST) Temp. Dew Point Humidity Pressure Visibility Wind Dir Wind Speed Gust Speed Precip Events Conditions
12:55 AM 53.1 °F 24.1 °F 32% 29.92 in 10.0 mi SSE 5.8 mph - N/A   Clear
1:55 AM 55.0 °F 19.9 °F 25% 29.92 in 10.0 mi Calm Calm - N/A   Clear
2:55 AM 53.1 °F 25.0 °F 34% 29.92 in 10.0 mi Calm Calm - N/A   Clear
3:55 AM 51.1 °F 28.0 °F 41% 29.92 in 10.0 mi Calm Calm - N/A   Clear
4:55 AM 48.0 °F 28.0 °F 46% 29.93 in 10.0 mi NE 4.6 mph - N/A   Clear
5:55 AM 48.9 °F 28.0 °F 44% 29.94 in 10.0 mi Calm Calm - N/A   Clear
6:55 AM 48.9 °F 28.0 °F 44% 29.96 in 10.0 mi NNE 4.6 mph - N/A   Partly Cloudy
7:55 AM 50.0 °F 28.9 °F 44% 29.98 in 10.0 mi NE 4.6 mph - N/A   Partly Cloudy
8:55 AM 55.0 °F 27.0 °F 34% 30.00 in 10.0 mi NNE 5.8 mph - N/A   Scattered Clouds
9:55 AM 59.0 °F 30.0 °F 33% 30.01 in 10.0 mi NE 5.8 mph - N/A   Scattered Clouds
10:55 AM 64.9 °F 28.0 °F 25% 30.00 in 10.0 mi ENE 5.8 mph - N/A   Scattered Clouds
11:55 AM 69.1 °F 24.1 °F 18% 29.99 in 10.0 mi East 3.5 mph - N/A   Scattered Clouds
12:55 PM 71.1 °F 26.1 °F 19% 29.96 in 10.0 mi Variable 3.5 mph - N/A   Scattered Clouds
1:55 PM 73.0 °F 26.1 °F 17% 29.93 in 10.0 mi Calm Calm - N/A   Scattered Clouds
2:55 PM 73.0 °F 27.0 °F 18% 29.92 in 10.0 mi Calm Calm - N/A   Mostly Cloudy
3:55 PM 73.9 °F 28.0 °F 18% 29.90 in 10.0 mi NW 4.6 mph - N/A   Clear
4:55 PM 73.9 °F 27.0 °F 18% 29.88 in 10.0 mi Calm Calm - N/A   Mostly Cloudy
5:55 PM 72.0 °F 28.9 °F 20% 29.87 in 10.0 mi West 4.6 mph - N/A   Mostly Cloudy
6:55 PM 69.1 °F 30.0 °F 23% 29.86 in 10.0 mi Calm Calm - N/A   Scattered Clouds
7:55 PM 64.0 °F 32.0 °F 30% 29.87 in 10.0 mi Calm Calm - N/A   Scattered Clouds
8:55 PM 61.0 °F 34.0 °F 36% 29.87 in 10.0 mi Calm Calm - N/A   Scattered Clouds
9:55 PM 57.9 °F 33.1 °F 39% 29.87 in 10.0 mi South 9.2 mph - N/A   Scattered Clouds
10:55 PM 57.0 °F 33.1 °F 40% 29.88 in 10.0 mi SW 5.8 mph - N/A   Mostly Cloudy
11:55 PM 55.9 °F 35.1 °F 45% 29.88 in 10.0 mi Calm Calm - N/A   Mostly Cloudy